Location: Zagreb
(45.8000°N, 16.0000°E)
Time: 12:08:30
(UTC+01:00)

Vanguard 1 Rocket - Pass Details

Date: 09 October 2020
Orbit: 656 x 4221 km, 34.3° (Epoch: 28 October)

Event Time Altitude Azimuth Distance (km) Brightness Sun altitude
Rises 17:17:23 0° 244° (WSW) 4,015 13.0 9.8°
Reaches altitude 10° 17:19:43 10° 238° (WSW) 3,341 12.5 9.4°
Maximum altitude 17:27:58 47° 167° (SSE) 2,478 9.8 8.1°
Drops below altitude 10° 17:43:30 10° 102° (ESE) 6,110 11.1 5.5°
Sets 17:49:36 0° 98° (E) 7,638 11.5 4.5°
